DECAYED

STARLINK-30304, 57808 (Decayed)

Orbit data source: Space-Track

STARLINK-30304, 57808 was a payload satellite owned by SpaceX/Seattle (US) in LEO that was launched on Sat, 09 Sep 2023 UTC via an FALCON 9 launch vehicle from the Air Force Eastern Test Range (AFETR). Payload-class satellites include a variety of spacecraft equipped with specific instruments for various scientific and technological missions. These include communications satellites like Starlink; space stations such as the ISS; scientific satellites like the Hubble; Earth observation satellites from companies like Planet Labs, Umbra, and HawkEye 360; GPS; miniature CubeSats for education and research; and military/defense satellites.

Not visible in the next 10 days
Identifier
57808, 2023-138A
Orbit
Decayed
Country
Flag of USUS
Related business
Manufacturer
SpaceX/Seattle
Mission
Decayed Commercial Communications
Bus & Motor
STARLINK V2M, Unknown motor
Mass
730 kg wet, ~700 kg dry
Launch date (UTC)
2023-09-09 (3 years ago)
Launch vehicle
FALCON 9
Launch site
Air Force Eastern Test Range (AFETR)
Object type
Payload
Rocket body
Debris
Shape & HBR
Box + 2 Pan, 17.7 m
Radar Cross Section
33.884 m², Large (>1 m²)

Expand to show TLE details & history
Last TLE update: 8 months ago

TLE from 8 months ago
0 STARLINK-30304
1 57808U 23138A   25280.14434155  .07933343  87455-5  34821-2 0  9995
2 57808  42.9716 179.9504 0017926 220.4067 139.5487 16.21027730117544
Epoch: 2025-10-07T03:27Z
TLE epoch observation values (Epoch: 2025-10-07T03:27:51.109Z)
Latitude
-0.00009°
Longitude
111.9499°
Altitude
225.53 km
Speed
7.768 km/s
True Right ascension
11h 59m 48s
True Declination
0° 00' 00"
Sunlit
Object was in daylight at epoch
Visualization orbit readout
Latitude
Unknown
Longitude
Unknown
Altitude
Unknown
Speed
Unknown
Apparent Right ascension
Unknown
Apparent Declination
Unknown
Sunlit
N/A
Visualization observer readout
Local Sidereal Time
21:29:46
Azimuth
Unknown
Elevation
Unknown
Doppler factor
Unknown
Orbital elements
Apogee altitude
230.617 km
Perigee altitude
206.966 km
Semi-major axis
6,596.928 km
Eccentricity
0.00179
Inclination
42.9716°
RAAN
179.9504°
Arg. of periapsis
220.4067°
True anomaly
139.68175°
Mean anomaly
139.5487°
Eccentric anomaly
139.61525°
Mean motion
4.0507 °/min
Orbital period
88.87 mins
BSTAR
0.0034821
Loading maneuver chart data...
Computing Atmospheric mass density...
Loading historical data...
Loading historical data...
Loading historical data...
Loading historical data...
Loading historical data...
Loading historical data...
Loading historical data...

Documentation

Showing up to 5 results
|